Location: Mactaquac Provincial Park
(45.9573°N, 66.8897°W)
Time: 21:17:42
(UTC-03:00)

Cosmos 1867 - Visible Passes

Search period start: 25 October 2014 00:00
Search period end: 03 November 2014 23:00
Orbit: 778 x 798 km, 65.0° (Epoch: 24 October)

Date Brightness Start Highest point End Pass type
(mag) Time Alt. Az. Time Alt. Az. Time Alt. Az.
25 Oct 4.9 04:45:04 34° NNE 04:45:04 34° NNE 04:48:05 10° NE visible
25 Oct 5.0 06:25:46 19° NW 06:27:03 21° NNW 06:31:08 10° NNE visible
26 Oct 5.7 04:14:41 21° NE 04:14:41 21° NE 04:16:29 10° NE visible
26 Oct 4.9 05:55:22 25° NNW 05:55:22 25° NNW 05:59:40 10° NNE visible
27 Oct 6.3 03:44:14 13° NE 03:44:14 13° NE 03:44:49 10° NE visible
27 Oct 5.0 05:24:55 26° N 05:24:55 26° N 05:28:11 10° NNE visible
27 Oct 5.6 07:06:55 10° NW 07:08:51 12° NNW 07:10:48 10° N visible
28 Oct 5.4 04:54:26 22° N 04:54:26 22° N 04:56:42 10° NNE visible
28 Oct 5.6 06:35:06 12° NW 06:36:52 13° NNW 06:39:23 10° N visible
29 Oct 5.9 04:23:54 17° NNE 04:23:54 17° NNE 04:25:11 10° NNE visible
29 Oct 5.5 06:04:35 15° NNW 06:04:55 15° NNW 06:07:58 10° N visible
30 Oct 6.4 03:53:21 12° NNE 03:53:21 12° NNE 03:53:38 10° NNE visible
30 Oct 5.5 05:34:02 16° NNW 05:34:02 16° NNW 05:36:32 10° NNE visible
31 Oct 5.8 05:03:27 16° N 05:03:27 16° N 05:05:05 10° NNE visible
31 Oct 5.9 06:46:41 10° N 06:46:58 10° N 06:47:14 10° N visible
01 Nov 6.1 04:32:51 13° NNE 04:32:51 13° NNE 04:33:37 10° NNE visible
01 Nov 5.8 06:13:47 10° NNW 06:14:56 11° N 06:16:06 10° N visible
02 Nov 5.8 04:42:55 12° NNW 04:42:56 12° NNW 04:44:44 10° N visible
02 Nov 5.9 06:27:30 10° N 06:29:09 11° NNE 06:30:49 10° NNE visible
03 Nov 6.0 04:12:18 12° N 04:12:18 12° N 04:13:20 10° N visible
03 Nov 5.9 05:56:09 10° N 05:57:08 10° N 05:58:08 10° NNE visible
